Retour au catalogue

COSMOS 1275 DEB

ActifPO
NORAD 14405·DEBRIS·🇷🇺 Russia

Lancé Jun 4, 1981 depuis Plesetsk Cosmodrome

Loading…

Prochains Passages (prochaines 24 heures)

TLE

FraisSource: Space-Track

Époque: Sep 14, 2026, 15:46 UTC

1 14405U 81053JA  26257.65705942  .00000528  00000-0  45730-3 0  9998
2 14405  83.2655  43.3378 0068053  51.6541 321.9165 13.83410862257521

Suivez COSMOS 1275 DEB en temps réel avec AllMySat

Download on the App Store